User: anonymous   Login
Location: Unspecified
(0.0000°N, 0.0000°E)
Time: 00:03:43
(UTC+00:00)
Language:

CUTE-I - Orbit

View from above orbital plane
View from above orbital plane
View from above satellite
View from above satellite

Ground track
Ground track

The orbit data is extracted from the following two-line orbital elements,

1 27844U 03031E   19146.01392761  .00000040  00000-0  37598-4 0  9992
2 27844  98.6843 154.5813 0011107  98.8816 261.3620 14.22177638824928
Epoch (UTC): 26 May 2019 00:20:03
Eccentricity: 0.0011107
inclination: 98.6843°
perigee height: 810 km
apogee height: 826 km
right ascension of ascending node: 154.5813°
argument of perigee: 98.8816°
revolutions per day: 14.22177638
mean anomaly at epoch: 261.3620°
orbit number at epoch: 82492

The dashed part of the orbit path shows where the satellite is in the earth's shadow,  

DLR